<?xml version="1.0" encoding="UTF-8" standalone="no" ?>
<gpx xmlns="http://www.topografix.com/GPX/1/1" xmlns:xsi="http://www.w3.org/2001/XMLSchema-instance" xsi:schemaLocation="http://www.topografix.com/GPX/1/1 http://www.topografix.com/GPX/1/1/gpx.xsd" version="1.1" creator="VisuGPX - https://www.visugpx.com">
  <metadata>
    <name>Bois noirs 2007 44kms</name>
    <desc><![CDATA[Variante un peu plus sportive de la boucle des 40kms]]></desc>
  </metadata>
  <trk>
    <name><![CDATA[track]]></name>
    <trkseg>
      <trkpt lat="46.01497" lon="3.67247">
        <ele>624</ele>
        <time>2010-09-19T13:33:53Z</time>
      </trkpt>
      <trkpt lat="46.01478" lon="3.67166">
        <ele>617</ele>
        <time>2010-09-19T13:33:53Z</time>
      </trkpt>
      <trkpt lat="46.0141" lon="3.67213">
        <ele>620</ele>
        <time>2010-09-19T13:33:53Z</time>
      </trkpt>
      <trkpt lat="46.0133" lon="3.67298">
        <ele>621</ele>
        <time>2010-09-19T13:33:53Z</time>
      </trkpt>
      <trkpt lat="46.01286" lon="3.67432">
        <ele>624</ele>
        <time>2010-09-19T13:33:53Z</time>
      </trkpt>
      <trkpt lat="46.01175" lon="3.68017">
        <ele>640</ele>
        <time>2010-09-19T13:33:53Z</time>
      </trkpt>
      <trkpt lat="46.01136" lon="3.68115">
        <ele>643</ele>
        <time>2010-09-19T13:33:53Z</time>
      </trkpt>
      <trkpt lat="46.01142" lon="3.68191">
        <ele>649</ele>
        <time>2010-09-19T13:33:53Z</time>
      </trkpt>
      <trkpt lat="46.01096" lon="3.68446">
        <ele>671</ele>
        <time>2010-09-19T13:33:53Z</time>
      </trkpt>
      <trkpt lat="46.01094" lon="3.685">
        <ele>674</ele>
        <time>2010-09-19T13:33:53Z</time>
      </trkpt>
      <trkpt lat="46.01207" lon="3.68678">
        <ele>691</ele>
        <time>2010-09-19T13:33:53Z</time>
      </trkpt>
      <trkpt lat="46.01245" lon="3.6871">
        <ele>693</ele>
        <time>2010-09-19T13:33:53Z</time>
      </trkpt>
      <trkpt lat="46.0133" lon="3.68717">
        <ele>701</ele>
        <time>2010-09-19T13:33:53Z</time>
      </trkpt>
      <trkpt lat="46.01393" lon="3.68888">
        <ele>707</ele>
        <time>2010-09-19T13:33:53Z</time>
      </trkpt>
      <trkpt lat="46.01394" lon="3.68954">
        <ele>713</ele>
        <time>2010-09-19T13:33:53Z</time>
      </trkpt>
      <trkpt lat="46.01384" lon="3.68983">
        <ele>716</ele>
        <time>2010-09-19T13:33:53Z</time>
      </trkpt>
      <trkpt lat="46.01366" lon="3.69028">
        <ele>723</ele>
        <time>2010-09-19T13:33:53Z</time>
      </trkpt>
      <trkpt lat="46.01328" lon="3.69049">
        <ele>726</ele>
        <time>2010-09-19T13:33:53Z</time>
      </trkpt>
      <trkpt lat="46.01206" lon="3.69017">
        <ele>724</ele>
        <time>2010-09-19T13:33:53Z</time>
      </trkpt>
      <trkpt lat="46.0116" lon="3.69047">
        <ele>724</ele>
        <time>2010-09-19T13:33:53Z</time>
      </trkpt>
      <trkpt lat="46.01154" lon="3.6911">
        <ele>726</ele>
        <time>2010-09-19T13:33:53Z</time>
      </trkpt>
      <trkpt lat="46.01169" lon="3.69207">
        <ele>730</ele>
        <time>2010-09-19T13:33:53Z</time>
      </trkpt>
      <trkpt lat="46.01135" lon="3.69304">
        <ele>721</ele>
        <time>2010-09-19T13:33:53Z</time>
      </trkpt>
      <trkpt lat="46.01042" lon="3.69468">
        <ele>720</ele>
        <time>2010-09-19T13:33:53Z</time>
      </trkpt>
      <trkpt lat="46.00929" lon="3.6942">
        <ele>729</ele>
        <time>2010-09-19T13:33:53Z</time>
      </trkpt>
      <trkpt lat="46.00777" lon="3.6942">
        <ele>742</ele>
        <time>2010-09-19T13:33:53Z</time>
      </trkpt>
      <trkpt lat="46.00719" lon="3.69452">
        <ele>745</ele>
        <time>2010-09-19T13:33:53Z</time>
      </trkpt>
      <trkpt lat="46.00669" lon="3.69506">
        <ele>747</ele>
        <time>2010-09-19T13:33:53Z</time>
      </trkpt>
      <trkpt lat="46.00611" lon="3.69588">
        <ele>750</ele>
        <time>2010-09-19T13:33:53Z</time>
      </trkpt>
      <trkpt lat="46.00537" lon="3.69661">
        <ele>746</ele>
        <time>2010-09-19T13:33:53Z</time>
      </trkpt>
      <trkpt lat="46.00417" lon="3.69813">
        <ele>743</ele>
        <time>2010-09-19T13:33:53Z</time>
      </trkpt>
      <trkpt lat="46.00377" lon="3.69886">
        <ele>747</ele>
        <time>2010-09-19T13:33:53Z</time>
      </trkpt>
      <trkpt lat="46.00355" lon="3.69886">
        <ele>744</ele>
        <time>2010-09-19T13:33:53Z</time>
      </trkpt>
      <trkpt lat="46.00286" lon="3.69864">
        <ele>749</ele>
        <time>2010-09-19T13:33:53Z</time>
      </trkpt>
      <trkpt lat="46.00219" lon="3.69877">
        <ele>755</ele>
        <time>2010-09-19T13:33:53Z</time>
      </trkpt>
      <trkpt lat="46.00096" lon="3.69966">
        <ele>761</ele>
        <time>2010-09-19T13:33:53Z</time>
      </trkpt>
      <trkpt lat="46.00011" lon="3.69992">
        <ele>751</ele>
        <time>2010-09-19T13:33:53Z</time>
      </trkpt>
      <trkpt lat="45.99859" lon="3.6991">
        <ele>741</ele>
        <time>2010-09-19T13:33:53Z</time>
      </trkpt>
      <trkpt lat="45.9985" lon="3.69902">
        <ele>743</ele>
        <time>2010-09-19T13:33:53Z</time>
      </trkpt>
      <trkpt lat="45.99862" lon="3.69818">
        <ele>745</ele>
        <time>2010-09-19T13:33:53Z</time>
      </trkpt>
      <trkpt lat="45.9981" lon="3.69727">
        <ele>758</ele>
        <time>2010-09-19T13:33:53Z</time>
      </trkpt>
      <trkpt lat="45.99771" lon="3.69595">
        <ele>764</ele>
        <time>2010-09-19T13:33:53Z</time>
      </trkpt>
      <trkpt lat="45.99763" lon="3.69472">
        <ele>767</ele>
        <time>2010-09-19T13:33:53Z</time>
      </trkpt>
      <trkpt lat="45.99771" lon="3.69435">
        <ele>769</ele>
        <time>2010-09-19T13:33:53Z</time>
      </trkpt>
      <trkpt lat="45.99803" lon="3.69372">
        <ele>773</ele>
        <time>2010-09-19T13:33:53Z</time>
      </trkpt>
      <trkpt lat="45.99873" lon="3.69294">
        <ele>775</ele>
        <time>2010-09-19T13:33:53Z</time>
      </trkpt>
      <trkpt lat="45.99925" lon="3.6922">
        <ele>779</ele>
        <time>2010-09-19T13:33:53Z</time>
      </trkpt>
      <trkpt lat="45.99862" lon="3.6926">
        <ele>785</ele>
        <time>2010-09-19T13:33:53Z</time>
      </trkpt>
      <trkpt lat="45.99783" lon="3.69284">
        <ele>801</ele>
        <time>2010-09-19T13:33:53Z</time>
      </trkpt>
      <trkpt lat="45.99721" lon="3.69307">
        <ele>809</ele>
        <time>2010-09-19T13:33:53Z</time>
      </trkpt>
      <trkpt lat="45.99394" lon="3.69768">
        <ele>853</ele>
        <time>2010-09-19T13:33:53Z</time>
      </trkpt>
      <trkpt lat="45.99389" lon="3.69802">
        <ele>853</ele>
        <time>2010-09-19T13:33:53Z</time>
      </trkpt>
      <trkpt lat="45.99321" lon="3.70015">
        <ele>872</ele>
        <time>2010-09-19T13:33:53Z</time>
      </trkpt>
      <trkpt lat="45.99309" lon="3.70031">
        <ele>874</ele>
        <time>2010-09-19T13:33:53Z</time>
      </trkpt>
      <trkpt lat="45.99273" lon="3.7002">
        <ele>877</ele>
        <time>2010-09-19T13:33:53Z</time>
      </trkpt>
      <trkpt lat="45.99253" lon="3.69989">
        <ele>876</ele>
        <time>2010-09-19T13:33:53Z</time>
      </trkpt>
      <trkpt lat="45.99243" lon="3.6989">
        <ele>873</ele>
        <time>2010-09-19T13:33:53Z</time>
      </trkpt>
      <trkpt lat="45.99282" lon="3.69717">
        <ele>877</ele>
        <time>2010-09-19T13:33:53Z</time>
      </trkpt>
      <trkpt lat="45.9926" lon="3.69594">
        <ele>885</ele>
        <time>2010-09-19T13:33:53Z</time>
      </trkpt>
      <trkpt lat="45.99268" lon="3.69566">
        <ele>889</ele>
        <time>2010-09-19T13:33:53Z</time>
      </trkpt>
      <trkpt lat="45.9935" lon="3.69501">
        <ele>887</ele>
        <time>2010-09-19T13:33:53Z</time>
      </trkpt>
      <trkpt lat="45.99366" lon="3.69469">
        <ele>879</ele>
        <time>2010-09-19T13:33:53Z</time>
      </trkpt>
      <trkpt lat="45.99331" lon="3.69371">
        <ele>868</ele>
        <time>2010-09-19T13:33:53Z</time>
      </trkpt>
      <trkpt lat="45.99307" lon="3.69337">
        <ele>860</ele>
        <time>2010-09-19T13:33:53Z</time>
      </trkpt>
      <trkpt lat="45.99275" lon="3.69316">
        <ele>852</ele>
        <time>2010-09-19T13:33:53Z</time>
      </trkpt>
      <trkpt lat="45.99233" lon="3.69317">
        <ele>843</ele>
        <time>2010-09-19T13:33:53Z</time>
      </trkpt>
      <trkpt lat="45.99151" lon="3.69363">
        <ele>831</ele>
        <time>2010-09-19T13:33:53Z</time>
      </trkpt>
      <trkpt lat="45.98881" lon="3.69581">
        <ele>793</ele>
        <time>2010-09-19T13:33:53Z</time>
      </trkpt>
      <trkpt lat="45.98787" lon="3.69632">
        <ele>781</ele>
        <time>2010-09-19T13:33:53Z</time>
      </trkpt>
      <trkpt lat="45.9874" lon="3.69632">
        <ele>776</ele>
        <time>2010-09-19T13:33:53Z</time>
      </trkpt>
      <trkpt lat="45.98632" lon="3.69678">
        <ele>775</ele>
        <time>2010-09-19T13:33:53Z</time>
      </trkpt>
      <trkpt lat="45.98574" lon="3.69673">
        <ele>773</ele>
        <time>2010-09-19T13:33:53Z</time>
      </trkpt>
      <trkpt lat="45.98483" lon="3.69647">
        <ele>766</ele>
        <time>2010-09-19T13:33:53Z</time>
      </trkpt>
      <trkpt lat="45.98413" lon="3.69589">
        <ele>751</ele>
        <time>2010-09-19T13:33:53Z</time>
      </trkpt>
      <trkpt lat="45.98287" lon="3.69747">
        <ele>753</ele>
        <time>2010-09-19T13:33:53Z</time>
      </trkpt>
      <trkpt lat="45.98237" lon="3.69765">
        <ele>753</ele>
        <time>2010-09-19T13:33:53Z</time>
      </trkpt>
      <trkpt lat="45.98215" lon="3.6981">
        <ele>756</ele>
        <time>2010-09-19T13:33:53Z</time>
      </trkpt>
      <trkpt lat="45.98196" lon="3.69946">
        <ele>760</ele>
        <time>2010-09-19T13:33:53Z</time>
      </trkpt>
      <trkpt lat="45.98155" lon="3.70036">
        <ele>764</ele>
        <time>2010-09-19T13:33:53Z</time>
      </trkpt>
      <trkpt lat="45.98104" lon="3.70026">
        <ele>774</ele>
        <time>2010-09-19T13:33:53Z</time>
      </trkpt>
      <trkpt lat="45.98082" lon="3.70007">
        <ele>780</ele>
        <time>2010-09-19T13:33:53Z</time>
      </trkpt>
      <trkpt lat="45.98073" lon="3.69981">
        <ele>782</ele>
        <time>2010-09-19T13:33:53Z</time>
      </trkpt>
      <trkpt lat="45.98054" lon="3.69911">
        <ele>784</ele>
        <time>2010-09-19T13:33:53Z</time>
      </trkpt>
      <trkpt lat="45.9801" lon="3.69831">
        <ele>788</ele>
        <time>2010-09-19T13:33:53Z</time>
      </trkpt>
      <trkpt lat="45.97875" lon="3.69714">
        <ele>799</ele>
        <time>2010-09-19T13:33:53Z</time>
      </trkpt>
      <trkpt lat="45.97818" lon="3.69708">
        <ele>803</ele>
        <time>2010-09-19T13:33:53Z</time>
      </trkpt>
      <trkpt lat="45.97713" lon="3.69718">
        <ele>806</ele>
        <time>2010-09-19T13:33:53Z</time>
      </trkpt>
      <trkpt lat="45.97461" lon="3.69709">
        <ele>805</ele>
        <time>2010-09-19T13:33:53Z</time>
      </trkpt>
      <trkpt lat="45.97406" lon="3.69675">
        <ele>806</ele>
        <time>2010-09-19T13:33:53Z</time>
      </trkpt>
      <trkpt lat="45.97387" lon="3.69609">
        <ele>808</ele>
        <time>2010-09-19T13:33:53Z</time>
      </trkpt>
      <trkpt lat="45.9739" lon="3.69568">
        <ele>810</ele>
        <time>2010-09-19T13:33:53Z</time>
      </trkpt>
      <trkpt lat="45.97404" lon="3.69546">
        <ele>810</ele>
        <time>2010-09-19T13:33:53Z</time>
      </trkpt>
      <trkpt lat="45.97413" lon="3.69491">
        <ele>813</ele>
        <time>2010-09-19T13:33:53Z</time>
      </trkpt>
      <trkpt lat="45.97411" lon="3.69454">
        <ele>815</ele>
        <time>2010-09-19T13:33:53Z</time>
      </trkpt>
      <trkpt lat="45.97381" lon="3.69368">
        <ele>819</ele>
        <time>2010-09-19T13:33:53Z</time>
      </trkpt>
      <trkpt lat="45.97348" lon="3.69299">
        <ele>823</ele>
        <time>2010-09-19T13:33:53Z</time>
      </trkpt>
      <trkpt lat="45.97288" lon="3.69229">
        <ele>832</ele>
        <time>2010-09-19T13:33:53Z</time>
      </trkpt>
      <trkpt lat="45.97242" lon="3.69116">
        <ele>843</ele>
        <time>2010-09-19T13:33:53Z</time>
      </trkpt>
      <trkpt lat="45.97224" lon="3.69124">
        <ele>847</ele>
        <time>2010-09-19T13:33:53Z</time>
      </trkpt>
      <trkpt lat="45.97198" lon="3.69131">
        <ele>852</ele>
        <time>2010-09-19T13:33:53Z</time>
      </trkpt>
      <trkpt lat="45.97058" lon="3.69015">
        <ele>863</ele>
        <time>2010-09-19T13:33:53Z</time>
      </trkpt>
      <trkpt lat="45.97013" lon="3.69006">
        <ele>866</ele>
        <time>2010-09-19T13:33:53Z</time>
      </trkpt>
      <trkpt lat="45.96917" lon="3.69023">
        <ele>874</ele>
        <time>2010-09-19T13:33:53Z</time>
      </trkpt>
      <trkpt lat="45.96852" lon="3.69055">
        <ele>883</ele>
        <time>2010-09-19T13:33:53Z</time>
      </trkpt>
      <trkpt lat="45.96767" lon="3.69033">
        <ele>889</ele>
        <time>2010-09-19T13:33:53Z</time>
      </trkpt>
      <trkpt lat="45.9672" lon="3.68989">
        <ele>889</ele>
        <time>2010-09-19T13:33:53Z</time>
      </trkpt>
      <trkpt lat="45.96676" lon="3.68959">
        <ele>889</ele>
        <time>2010-09-19T13:33:53Z</time>
      </trkpt>
      <trkpt lat="45.96545" lon="3.68943">
        <ele>901</ele>
        <time>2010-09-19T13:33:53Z</time>
      </trkpt>
      <trkpt lat="45.96497" lon="3.68924">
        <ele>906</ele>
        <time>2010-09-19T13:33:53Z</time>
      </trkpt>
      <trkpt lat="45.96459" lon="3.6889">
        <ele>907</ele>
        <time>2010-09-19T13:33:53Z</time>
      </trkpt>
      <trkpt lat="45.96388" lon="3.68789">
        <ele>912</ele>
        <time>2010-09-19T13:33:53Z</time>
      </trkpt>
      <trkpt lat="45.96363" lon="3.68728">
        <ele>914</ele>
        <time>2010-09-19T13:33:53Z</time>
      </trkpt>
      <trkpt lat="45.96276" lon="3.68592">
        <ele>922</ele>
        <time>2010-09-19T13:33:53Z</time>
      </trkpt>
      <trkpt lat="45.96245" lon="3.68521">
        <ele>928</ele>
        <time>2010-09-19T13:33:53Z</time>
      </trkpt>
      <trkpt lat="45.96231" lon="3.6859">
        <ele>930</ele>
        <time>2010-09-19T13:33:53Z</time>
      </trkpt>
      <trkpt lat="45.96229" lon="3.68714">
        <ele>941</ele>
        <time>2010-09-19T13:33:53Z</time>
      </trkpt>
      <trkpt lat="45.96225" lon="3.6891">
        <ele>953</ele>
        <time>2010-09-19T13:33:53Z</time>
      </trkpt>
      <trkpt lat="45.96198" lon="3.69065">
        <ele>966</ele>
        <time>2010-09-19T13:33:53Z</time>
      </trkpt>
      <trkpt lat="45.96136" lon="3.69178">
        <ele>972</ele>
        <time>2010-09-19T13:33:53Z</time>
      </trkpt>
      <trkpt lat="45.96183" lon="3.69282">
        <ele>969</ele>
        <time>2010-09-19T13:33:53Z</time>
      </trkpt>
      <trkpt lat="45.96226" lon="3.69448">
        <ele>962</ele>
        <time>2010-09-19T13:33:53Z</time>
      </trkpt>
      <trkpt lat="45.96225" lon="3.69472">
        <ele>960</ele>
        <time>2010-09-19T13:33:53Z</time>
      </trkpt>
      <trkpt lat="45.96203" lon="3.69502">
        <ele>956</ele>
        <time>2010-09-19T13:33:53Z</time>
      </trkpt>
      <trkpt lat="45.9616" lon="3.69515">
        <ele>950</ele>
        <time>2010-09-19T13:33:53Z</time>
      </trkpt>
      <trkpt lat="45.96109" lon="3.69509">
        <ele>944</ele>
        <time>2010-09-19T13:33:53Z</time>
      </trkpt>
      <trkpt lat="45.96069" lon="3.69479">
        <ele>943</ele>
        <time>2010-09-19T13:33:53Z</time>
      </trkpt>
      <trkpt lat="45.96042" lon="3.69466">
        <ele>941</ele>
        <time>2010-09-19T13:33:53Z</time>
      </trkpt>
      <trkpt lat="45.96019" lon="3.69473">
        <ele>937</ele>
        <time>2010-09-19T13:33:53Z</time>
      </trkpt>
      <trkpt lat="45.96002" lon="3.69494">
        <ele>931</ele>
        <time>2010-09-19T13:33:53Z</time>
      </trkpt>
      <trkpt lat="45.9599" lon="3.69561">
        <ele>920</ele>
        <time>2010-09-19T13:33:53Z</time>
      </trkpt>
      <trkpt lat="45.95971" lon="3.69604">
        <ele>920</ele>
        <time>2010-09-19T13:33:53Z</time>
      </trkpt>
      <trkpt lat="45.95926" lon="3.69616">
        <ele>926</ele>
        <time>2010-09-19T13:33:53Z</time>
      </trkpt>
      <trkpt lat="45.95912" lon="3.69632">
        <ele>927</ele>
        <time>2010-09-19T13:33:53Z</time>
      </trkpt>
      <trkpt lat="45.9591" lon="3.69653">
        <ele>927</ele>
        <time>2010-09-19T13:33:53Z</time>
      </trkpt>
      <trkpt lat="45.95934" lon="3.69706">
        <ele>920</ele>
        <time>2010-09-19T13:33:53Z</time>
      </trkpt>
      <trkpt lat="45.95937" lon="3.69734">
        <ele>919</ele>
        <time>2010-09-19T13:33:53Z</time>
      </trkpt>
      <trkpt lat="45.95943" lon="3.69807">
        <ele>917</ele>
        <time>2010-09-19T13:33:53Z</time>
      </trkpt>
      <trkpt lat="45.95935" lon="3.69844">
        <ele>917</ele>
        <time>2010-09-19T13:33:53Z</time>
      </trkpt>
      <trkpt lat="45.95898" lon="3.69868">
        <ele>918</ele>
        <time>2010-09-19T13:33:53Z</time>
      </trkpt>
      <trkpt lat="45.95832" lon="3.69878">
        <ele>918</ele>
        <time>2010-09-19T13:33:53Z</time>
      </trkpt>
      <trkpt lat="45.95732" lon="3.69866">
        <ele>918</ele>
        <time>2010-09-19T13:33:53Z</time>
      </trkpt>
      <trkpt lat="45.9564" lon="3.69846">
        <ele>923</ele>
        <time>2010-09-19T13:33:53Z</time>
      </trkpt>
      <trkpt lat="45.95616" lon="3.69865">
        <ele>923</ele>
        <time>2010-09-19T13:33:53Z</time>
      </trkpt>
      <trkpt lat="45.95556" lon="3.69947">
        <ele>928</ele>
        <time>2010-09-19T13:33:53Z</time>
      </trkpt>
      <trkpt lat="45.9552" lon="3.70067">
        <ele>929</ele>
        <time>2010-09-19T13:33:53Z</time>
      </trkpt>
      <trkpt lat="45.95496" lon="3.70112">
        <ele>931</ele>
        <time>2010-09-19T13:33:53Z</time>
      </trkpt>
      <trkpt lat="45.95435" lon="3.70173">
        <ele>933</ele>
        <time>2010-09-19T13:33:53Z</time>
      </trkpt>
      <trkpt lat="45.95428" lon="3.70197">
        <ele>930</ele>
        <time>2010-09-19T13:33:53Z</time>
      </trkpt>
      <trkpt lat="45.95516" lon="3.7022">
        <ele>919</ele>
        <time>2010-09-19T13:33:53Z</time>
      </trkpt>
      <trkpt lat="45.95744" lon="3.70306">
        <ele>899</ele>
        <time>2010-09-19T13:33:53Z</time>
      </trkpt>
      <trkpt lat="45.95814" lon="3.70229">
        <ele>891</ele>
        <time>2010-09-19T13:33:53Z</time>
      </trkpt>
      <trkpt lat="45.95882" lon="3.7021">
        <ele>876</ele>
        <time>2010-09-19T13:33:53Z</time>
      </trkpt>
      <trkpt lat="45.95905" lon="3.70185">
        <ele>870</ele>
        <time>2010-09-19T13:33:53Z</time>
      </trkpt>
      <trkpt lat="45.95928" lon="3.7013">
        <ele>868</ele>
        <time>2010-09-19T13:33:53Z</time>
      </trkpt>
      <trkpt lat="45.95956" lon="3.70092">
        <ele>872</ele>
        <time>2010-09-19T13:33:53Z</time>
      </trkpt>
      <trkpt lat="45.96061" lon="3.7009">
        <ele>872</ele>
        <time>2010-09-19T13:33:53Z</time>
      </trkpt>
      <trkpt lat="45.96122" lon="3.70038">
        <ele>869</ele>
        <time>2010-09-19T13:33:53Z</time>
      </trkpt>
      <trkpt lat="45.96167" lon="3.69977">
        <ele>869</ele>
        <time>2010-09-19T13:33:53Z</time>
      </trkpt>
      <trkpt lat="45.96181" lon="3.69983">
        <ele>868</ele>
        <time>2010-09-19T13:33:53Z</time>
      </trkpt>
      <trkpt lat="45.96227" lon="3.70067">
        <ele>866</ele>
        <time>2010-09-19T13:33:53Z</time>
      </trkpt>
      <trkpt lat="45.96347" lon="3.70101">
        <ele>871</ele>
        <time>2010-09-19T13:33:53Z</time>
      </trkpt>
      <trkpt lat="45.96401" lon="3.70137">
        <ele>863</ele>
        <time>2010-09-19T13:33:53Z</time>
      </trkpt>
      <trkpt lat="45.96277" lon="3.70223">
        <ele>855</ele>
        <time>2010-09-19T13:33:53Z</time>
      </trkpt>
      <trkpt lat="45.96214" lon="3.70226">
        <ele>845</ele>
        <time>2010-09-19T13:33:53Z</time>
      </trkpt>
      <trkpt lat="45.962" lon="3.70215">
        <ele>848</ele>
        <time>2010-09-19T13:33:53Z</time>
      </trkpt>
      <trkpt lat="45.96159" lon="3.70265">
        <ele>848</ele>
        <time>2010-09-19T13:33:53Z</time>
      </trkpt>
      <trkpt lat="45.96047" lon="3.70283">
        <ele>846</ele>
        <time>2010-09-19T13:33:53Z</time>
      </trkpt>
      <trkpt lat="45.9605" lon="3.70391">
        <ele>842</ele>
        <time>2010-09-19T13:33:53Z</time>
      </trkpt>
      <trkpt lat="45.9604" lon="3.70427">
        <ele>842</ele>
        <time>2010-09-19T13:33:53Z</time>
      </trkpt>
      <trkpt lat="45.96012" lon="3.70474">
        <ele>840</ele>
        <time>2010-09-19T13:33:53Z</time>
      </trkpt>
      <trkpt lat="45.95933" lon="3.70511">
        <ele>841</ele>
        <time>2010-09-19T13:33:53Z</time>
      </trkpt>
      <trkpt lat="45.9589" lon="3.70565">
        <ele>837</ele>
        <time>2010-09-19T13:33:53Z</time>
      </trkpt>
      <trkpt lat="45.95863" lon="3.70629">
        <ele>837</ele>
        <time>2010-09-19T13:33:53Z</time>
      </trkpt>
      <trkpt lat="45.959" lon="3.70662">
        <ele>837</ele>
        <time>2010-09-19T13:33:53Z</time>
      </trkpt>
      <trkpt lat="45.95997" lon="3.70676">
        <ele>831</ele>
        <time>2010-09-19T13:33:53Z</time>
      </trkpt>
      <trkpt lat="45.96023" lon="3.70707">
        <ele>835</ele>
        <time>2010-09-19T13:33:53Z</time>
      </trkpt>
      <trkpt lat="45.96067" lon="3.70816">
        <ele>844</ele>
        <time>2010-09-19T13:33:53Z</time>
      </trkpt>
      <trkpt lat="45.96107" lon="3.70832">
        <ele>843</ele>
        <time>2010-09-19T13:33:53Z</time>
      </trkpt>
      <trkpt lat="45.96367" lon="3.70872">
        <ele>840</ele>
        <time>2010-09-19T13:33:53Z</time>
      </trkpt>
      <trkpt lat="45.96415" lon="3.70912">
        <ele>840</ele>
        <time>2010-09-19T13:33:53Z</time>
      </trkpt>
      <trkpt lat="45.96444" lon="3.70958">
        <ele>839</ele>
        <time>2010-09-19T13:33:53Z</time>
      </trkpt>
      <trkpt lat="45.9642" lon="3.70983">
        <ele>844</ele>
        <time>2010-09-19T13:33:53Z</time>
      </trkpt>
      <trkpt lat="45.96377" lon="3.70985">
        <ele>851</ele>
        <time>2010-09-19T13:33:53Z</time>
      </trkpt>
      <trkpt lat="45.96302" lon="3.70956">
        <ele>858</ele>
        <time>2010-09-19T13:33:53Z</time>
      </trkpt>
      <trkpt lat="45.96223" lon="3.70959">
        <ele>865</ele>
        <time>2010-09-19T13:33:53Z</time>
      </trkpt>
      <trkpt lat="45.9616" lon="3.70983">
        <ele>874</ele>
        <time>2010-09-19T13:33:53Z</time>
      </trkpt>
      <trkpt lat="45.96076" lon="3.71052">
        <ele>883</ele>
        <time>2010-09-19T13:33:53Z</time>
      </trkpt>
      <trkpt lat="45.95999" lon="3.71155">
        <ele>893</ele>
        <time>2010-09-19T13:33:53Z</time>
      </trkpt>
      <trkpt lat="45.95952" lon="3.71186">
        <ele>897</ele>
        <time>2010-09-19T13:33:53Z</time>
      </trkpt>
      <trkpt lat="45.95914" lon="3.71352">
        <ele>913</ele>
        <time>2010-09-19T13:33:53Z</time>
      </trkpt>
      <trkpt lat="45.95921" lon="3.71495">
        <ele>927</ele>
        <time>2010-09-19T13:33:53Z</time>
      </trkpt>
      <trkpt lat="45.95897" lon="3.71542">
        <ele>928</ele>
        <time>2010-09-19T13:33:53Z</time>
      </trkpt>
      <trkpt lat="45.95875" lon="3.71558">
        <ele>929</ele>
        <time>2010-09-19T13:33:53Z</time>
      </trkpt>
      <trkpt lat="45.95758" lon="3.71602">
        <ele>938</ele>
        <time>2010-09-19T13:33:53Z</time>
      </trkpt>
      <trkpt lat="45.95656" lon="3.71623">
        <ele>951</ele>
        <time>2010-09-19T13:33:53Z</time>
      </trkpt>
      <trkpt lat="45.95555" lon="3.71706">
        <ele>963</ele>
        <time>2010-09-19T13:33:53Z</time>
      </trkpt>
      <trkpt lat="45.95531" lon="3.71712">
        <ele>967</ele>
        <time>2010-09-19T13:33:53Z</time>
      </trkpt>
      <trkpt lat="45.95487" lon="3.717">
        <ele>977</ele>
        <time>2010-09-19T13:33:53Z</time>
      </trkpt>
      <trkpt lat="45.95403" lon="3.71607">
        <ele>995</ele>
        <time>2010-09-19T13:33:53Z</time>
      </trkpt>
      <trkpt lat="45.95334" lon="3.7156">
        <ele>1003</ele>
        <time>2010-09-19T13:33:53Z</time>
      </trkpt>
      <trkpt lat="45.95264" lon="3.7156">
        <ele>1002</ele>
        <time>2010-09-19T13:33:53Z</time>
      </trkpt>
      <trkpt lat="45.95133" lon="3.71652">
        <ele>1003</ele>
        <time>2010-09-19T13:33:53Z</time>
      </trkpt>
      <trkpt lat="45.9506" lon="3.71725">
        <ele>1005</ele>
        <time>2010-09-19T13:33:53Z</time>
      </trkpt>
      <trkpt lat="45.9501" lon="3.71802">
        <ele>1010</ele>
        <time>2010-09-19T13:33:53Z</time>
      </trkpt>
      <trkpt lat="45.9498" lon="3.71927">
        <ele>1018</ele>
        <time>2010-09-19T13:33:53Z</time>
      </trkpt>
      <trkpt lat="45.94945" lon="3.71994">
        <ele>1024</ele>
        <time>2010-09-19T13:33:53Z</time>
      </trkpt>
      <trkpt lat="45.94942" lon="3.72021">
        <ele>1027</ele>
        <time>2010-09-19T13:33:53Z</time>
      </trkpt>
      <trkpt lat="45.94959" lon="3.72175">
        <ele>1033</ele>
        <time>2010-09-19T13:33:53Z</time>
      </trkpt>
      <trkpt lat="45.94933" lon="3.72245">
        <ele>1032</ele>
        <time>2010-09-19T13:33:53Z</time>
      </trkpt>
      <trkpt lat="45.94838" lon="3.72428">
        <ele>1035</ele>
        <time>2010-09-19T13:33:53Z</time>
      </trkpt>
      <trkpt lat="45.94782" lon="3.7262">
        <ele>1039</ele>
        <time>2010-09-19T13:33:53Z</time>
      </trkpt>
      <trkpt lat="45.94757" lon="3.72671">
        <ele>1039</ele>
        <time>2010-09-19T13:33:53Z</time>
      </trkpt>
      <trkpt lat="45.94697" lon="3.72725">
        <ele>1042</ele>
        <time>2010-09-19T13:33:53Z</time>
      </trkpt>
      <trkpt lat="45.94609" lon="3.72755">
        <ele>1045</ele>
        <time>2010-09-19T13:33:53Z</time>
      </trkpt>
      <trkpt lat="45.94556" lon="3.72768">
        <ele>1045</ele>
        <time>2010-09-19T13:33:53Z</time>
      </trkpt>
      <trkpt lat="45.94462" lon="3.7272">
        <ele>1049</ele>
        <time>2010-09-19T13:33:53Z</time>
      </trkpt>
      <trkpt lat="45.94431" lon="3.72684">
        <ele>1050</ele>
        <time>2010-09-19T13:33:53Z</time>
      </trkpt>
      <trkpt lat="45.94418" lon="3.72634">
        <ele>1053</ele>
        <time>2010-09-19T13:33:53Z</time>
      </trkpt>
      <trkpt lat="45.94428" lon="3.72557">
        <ele>1058</ele>
        <time>2010-09-19T13:33:53Z</time>
      </trkpt>
      <trkpt lat="45.94409" lon="3.72443">
        <ele>1062</ele>
        <time>2010-09-19T13:33:53Z</time>
      </trkpt>
      <trkpt lat="45.94389" lon="3.72385">
        <ele>1065</ele>
        <time>2010-09-19T13:33:53Z</time>
      </trkpt>
      <trkpt lat="45.94323" lon="3.72291">
        <ele>1068</ele>
        <time>2010-09-19T13:33:53Z</time>
      </trkpt>
      <trkpt lat="45.94265" lon="3.72238">
        <ele>1067</ele>
        <time>2010-09-19T13:33:53Z</time>
      </trkpt>
      <trkpt lat="45.93897" lon="3.72155">
        <ele>1057</ele>
        <time>2010-09-19T13:33:53Z</time>
      </trkpt>
      <trkpt lat="45.93781" lon="3.72178">
        <ele>1055</ele>
        <time>2010-09-19T13:33:53Z</time>
      </trkpt>
      <trkpt lat="45.93741" lon="3.72168">
        <ele>1054</ele>
        <time>2010-09-19T13:33:53Z</time>
      </trkpt>
      <trkpt lat="45.93704" lon="3.72137">
        <ele>1056</ele>
        <time>2010-09-19T13:33:53Z</time>
      </trkpt>
      <trkpt lat="45.93674" lon="3.7213">
        <ele>1055</ele>
        <time>2010-09-19T13:33:53Z</time>
      </trkpt>
      <trkpt lat="45.93649" lon="3.72142">
        <ele>1054</ele>
        <time>2010-09-19T13:33:53Z</time>
      </trkpt>
      <trkpt lat="45.93642" lon="3.72253">
        <ele>1052</ele>
        <time>2010-09-19T13:33:53Z</time>
      </trkpt>
      <trkpt lat="45.93609" lon="3.72604">
        <ele>1070</ele>
        <time>2010-09-19T13:33:53Z</time>
      </trkpt>
      <trkpt lat="45.9361" lon="3.72752">
        <ele>1073</ele>
        <time>2010-09-19T13:33:53Z</time>
      </trkpt>
      <trkpt lat="45.93637" lon="3.7294">
        <ele>1069</ele>
        <time>2010-09-19T13:33:53Z</time>
      </trkpt>
      <trkpt lat="45.93611" lon="3.73116">
        <ele>1064</ele>
        <time>2010-09-19T13:33:53Z</time>
      </trkpt>
      <trkpt lat="45.93703" lon="3.7329">
        <ele>1065</ele>
        <time>2010-09-19T13:33:53Z</time>
      </trkpt>
      <trkpt lat="45.93804" lon="3.73592">
        <ele>1065</ele>
        <time>2010-09-19T13:33:53Z</time>
      </trkpt>
      <trkpt lat="45.93881" lon="3.73723">
        <ele>1054</ele>
        <time>2010-09-19T13:33:53Z</time>
      </trkpt>
      <trkpt lat="45.93924" lon="3.73768">
        <ele>1049</ele>
        <time>2010-09-19T13:33:53Z</time>
      </trkpt>
      <trkpt lat="45.9394" lon="3.73821">
        <ele>1047</ele>
        <time>2010-09-19T13:33:53Z</time>
      </trkpt>
      <trkpt lat="45.93955" lon="3.73876">
        <ele>1045</ele>
        <time>2010-09-19T13:33:53Z</time>
      </trkpt>
      <trkpt lat="45.9396" lon="3.74014">
        <ele>1043</ele>
        <time>2010-09-19T13:33:53Z</time>
      </trkpt>
      <trkpt lat="45.93955" lon="3.74071">
        <ele>1042</ele>
        <time>2010-09-19T13:33:53Z</time>
      </trkpt>
      <trkpt lat="45.93919" lon="3.74143">
        <ele>1034</ele>
        <time>2010-09-19T13:33:53Z</time>
      </trkpt>
      <trkpt lat="45.93903" lon="3.74181">
        <ele>1028</ele>
        <time>2010-09-19T13:33:53Z</time>
      </trkpt>
      <trkpt lat="45.93896" lon="3.74238">
        <ele>1021</ele>
        <time>2010-09-19T13:33:53Z</time>
      </trkpt>
      <trkpt lat="45.93898" lon="3.74362">
        <ele>1007</ele>
        <time>2010-09-19T13:33:53Z</time>
      </trkpt>
      <trkpt lat="45.93857" lon="3.74483">
        <ele>994</ele>
        <time>2010-09-19T13:33:53Z</time>
      </trkpt>
      <trkpt lat="45.93734" lon="3.74596">
        <ele>976</ele>
        <time>2010-09-19T13:33:53Z</time>
      </trkpt>
      <trkpt lat="45.93712" lon="3.7471">
        <ele>962</ele>
        <time>2010-09-19T13:33:53Z</time>
      </trkpt>
      <trkpt lat="45.93669" lon="3.74727">
        <ele>962</ele>
        <time>2010-09-19T13:33:53Z</time>
      </trkpt>
      <trkpt lat="45.93591" lon="3.7481">
        <ele>960</ele>
        <time>2010-09-19T13:33:53Z</time>
      </trkpt>
      <trkpt lat="45.93552" lon="3.74951">
        <ele>945</ele>
        <time>2010-09-19T13:33:53Z</time>
      </trkpt>
      <trkpt lat="45.93529" lon="3.75104">
        <ele>941</ele>
        <time>2010-09-19T13:33:53Z</time>
      </trkpt>
      <trkpt lat="45.93511" lon="3.75163">
        <ele>936</ele>
        <time>2010-09-19T13:33:53Z</time>
      </trkpt>
      <trkpt lat="45.93465" lon="3.75263">
        <ele>923</ele>
        <time>2010-09-19T13:33:53Z</time>
      </trkpt>
      <trkpt lat="45.93389" lon="3.75318">
        <ele>908</ele>
        <time>2010-09-19T13:33:53Z</time>
      </trkpt>
      <trkpt lat="45.9339" lon="3.75377">
        <ele>905</ele>
        <time>2010-09-19T13:33:53Z</time>
      </trkpt>
      <trkpt lat="45.93414" lon="3.75425">
        <ele>903</ele>
        <time>2010-09-19T13:33:53Z</time>
      </trkpt>
      <trkpt lat="45.93442" lon="3.75543">
        <ele>891</ele>
        <time>2010-09-19T13:33:53Z</time>
      </trkpt>
      <trkpt lat="45.93321" lon="3.75445">
        <ele>892</ele>
        <time>2010-09-19T13:33:53Z</time>
      </trkpt>
      <trkpt lat="45.93306" lon="3.75451">
        <ele>888</ele>
        <time>2010-09-19T13:33:53Z</time>
      </trkpt>
      <trkpt lat="45.93286" lon="3.75492">
        <ele>881</ele>
        <time>2010-09-19T13:33:53Z</time>
      </trkpt>
      <trkpt lat="45.93285" lon="3.7574">
        <ele>857</ele>
        <time>2010-09-19T13:33:53Z</time>
      </trkpt>
      <trkpt lat="45.9329" lon="3.75834">
        <ele>851</ele>
        <time>2010-09-19T13:33:53Z</time>
      </trkpt>
      <trkpt lat="45.93307" lon="3.75926">
        <ele>843</ele>
        <time>2010-09-19T13:33:53Z</time>
      </trkpt>
      <trkpt lat="45.93305" lon="3.75976">
        <ele>839</ele>
        <time>2010-09-19T13:33:53Z</time>
      </trkpt>
      <trkpt lat="45.93318" lon="3.7613">
        <ele>827</ele>
        <time>2010-09-19T13:33:53Z</time>
      </trkpt>
      <trkpt lat="45.93386" lon="3.76393">
        <ele>804</ele>
        <time>2010-09-19T13:33:53Z</time>
      </trkpt>
      <trkpt lat="45.93404" lon="3.76425">
        <ele>801</ele>
        <time>2010-09-19T13:33:53Z</time>
      </trkpt>
      <trkpt lat="45.9343" lon="3.76441">
        <ele>799</ele>
        <time>2010-09-19T13:33:53Z</time>
      </trkpt>
      <trkpt lat="45.93439" lon="3.76467">
        <ele>795</ele>
        <time>2010-09-19T13:33:53Z</time>
      </trkpt>
      <trkpt lat="45.93421" lon="3.76513">
        <ele>789</ele>
        <time>2010-09-19T13:33:53Z</time>
      </trkpt>
      <trkpt lat="45.93356" lon="3.76577">
        <ele>780</ele>
        <time>2010-09-19T13:33:53Z</time>
      </trkpt>
      <trkpt lat="45.9334" lon="3.76616">
        <ele>775</ele>
        <time>2010-09-19T13:33:53Z</time>
      </trkpt>
      <trkpt lat="45.93337" lon="3.76659">
        <ele>771</ele>
        <time>2010-09-19T13:33:53Z</time>
      </trkpt>
      <trkpt lat="45.93369" lon="3.76707">
        <ele>767</ele>
        <time>2010-09-19T13:33:53Z</time>
      </trkpt>
      <trkpt lat="45.9341" lon="3.76717">
        <ele>765</ele>
        <time>2010-09-19T13:33:53Z</time>
      </trkpt>
      <trkpt lat="45.93466" lon="3.76666">
        <ele>762</ele>
        <time>2010-09-19T13:33:53Z</time>
      </trkpt>
      <trkpt lat="45.9355" lon="3.76495">
        <ele>764</ele>
        <time>2010-09-19T13:33:53Z</time>
      </trkpt>
      <trkpt lat="45.93572" lon="3.7648">
        <ele>762</ele>
        <time>2010-09-19T13:33:53Z</time>
      </trkpt>
      <trkpt lat="45.93633" lon="3.76475">
        <ele>750</ele>
        <time>2010-09-19T13:33:53Z</time>
      </trkpt>
      <trkpt lat="45.93666" lon="3.7645">
        <ele>744</ele>
        <time>2010-09-19T13:33:53Z</time>
      </trkpt>
      <trkpt lat="45.93747" lon="3.7633">
        <ele>736</ele>
        <time>2010-09-19T13:33:53Z</time>
      </trkpt>
      <trkpt lat="45.9383" lon="3.76174">
        <ele>742</ele>
        <time>2010-09-19T13:33:53Z</time>
      </trkpt>
      <trkpt lat="45.9386" lon="3.76155">
        <ele>740</ele>
        <time>2010-09-19T13:33:53Z</time>
      </trkpt>
      <trkpt lat="45.93877" lon="3.76156">
        <ele>741</ele>
        <time>2010-09-19T13:33:53Z</time>
      </trkpt>
      <trkpt lat="45.93857" lon="3.76215">
        <ele>739</ele>
        <time>2010-09-19T13:33:53Z</time>
      </trkpt>
      <trkpt lat="45.93851" lon="3.76265">
        <ele>740</ele>
        <time>2010-09-19T13:33:53Z</time>
      </trkpt>
      <trkpt lat="45.93849" lon="3.76405">
        <ele>746</ele>
        <time>2010-09-19T13:33:53Z</time>
      </trkpt>
      <trkpt lat="45.93838" lon="3.76493">
        <ele>748</ele>
        <time>2010-09-19T13:33:53Z</time>
      </trkpt>
      <trkpt lat="45.93843" lon="3.76592">
        <ele>751</ele>
        <time>2010-09-19T13:33:53Z</time>
      </trkpt>
      <trkpt lat="45.93856" lon="3.76631">
        <ele>753</ele>
        <time>2010-09-19T13:33:53Z</time>
      </trkpt>
      <trkpt lat="45.93886" lon="3.76685">
        <ele>755</ele>
        <time>2010-09-19T13:33:53Z</time>
      </trkpt>
      <trkpt lat="45.93934" lon="3.76723">
        <ele>758</ele>
        <time>2010-09-19T13:33:53Z</time>
      </trkpt>
      <trkpt lat="45.93967" lon="3.76767">
        <ele>758</ele>
        <time>2010-09-19T13:33:53Z</time>
      </trkpt>
      <trkpt lat="45.94135" lon="3.76883">
        <ele>756</ele>
        <time>2010-09-19T13:33:53Z</time>
      </trkpt>
      <trkpt lat="45.94272" lon="3.77015">
        <ele>753</ele>
        <time>2010-09-19T13:33:53Z</time>
      </trkpt>
      <trkpt lat="45.94381" lon="3.76889">
        <ele>740</ele>
        <time>2010-09-19T13:33:53Z</time>
      </trkpt>
      <trkpt lat="45.94589" lon="3.76727">
        <ele>730</ele>
        <time>2010-09-19T13:33:53Z</time>
      </trkpt>
      <trkpt lat="45.9462" lon="3.76684">
        <ele>730</ele>
        <time>2010-09-19T13:33:53Z</time>
      </trkpt>
      <trkpt lat="45.94649" lon="3.766">
        <ele>730</ele>
        <time>2010-09-19T13:33:53Z</time>
      </trkpt>
      <trkpt lat="45.94683" lon="3.76464">
        <ele>733</ele>
        <time>2010-09-19T13:33:53Z</time>
      </trkpt>
      <trkpt lat="45.94692" lon="3.76412">
        <ele>736</ele>
        <time>2010-09-19T13:33:53Z</time>
      </trkpt>
      <trkpt lat="45.94682" lon="3.76339">
        <ele>739</ele>
        <time>2010-09-19T13:33:53Z</time>
      </trkpt>
      <trkpt lat="45.94727" lon="3.76221">
        <ele>737</ele>
        <time>2010-09-19T13:33:53Z</time>
      </trkpt>
      <trkpt lat="45.94777" lon="3.76152">
        <ele>739</ele>
        <time>2010-09-19T13:33:53Z</time>
      </trkpt>
      <trkpt lat="45.94858" lon="3.76168">
        <ele>737</ele>
        <time>2010-09-19T13:33:53Z</time>
      </trkpt>
      <trkpt lat="45.94976" lon="3.76116">
        <ele>741</ele>
        <time>2010-09-19T13:33:53Z</time>
      </trkpt>
      <trkpt lat="45.95041" lon="3.76115">
        <ele>741</ele>
        <time>2010-09-19T13:33:53Z</time>
      </trkpt>
      <trkpt lat="45.951" lon="3.76097">
        <ele>741</ele>
        <time>2010-09-19T13:33:53Z</time>
      </trkpt>
      <trkpt lat="45.95224" lon="3.75957">
        <ele>747</ele>
        <time>2010-09-19T13:33:53Z</time>
      </trkpt>
      <trkpt lat="45.95262" lon="3.75866">
        <ele>752</ele>
        <time>2010-09-19T13:33:53Z</time>
      </trkpt>
      <trkpt lat="45.95285" lon="3.75807">
        <ele>752</ele>
        <time>2010-09-19T13:33:53Z</time>
      </trkpt>
      <trkpt lat="45.95349" lon="3.7577">
        <ele>756</ele>
        <time>2010-09-19T13:33:53Z</time>
      </trkpt>
      <trkpt lat="45.95399" lon="3.75697">
        <ele>762</ele>
        <time>2010-09-19T13:33:53Z</time>
      </trkpt>
      <trkpt lat="45.95507" lon="3.75601">
        <ele>775</ele>
        <time>2010-09-19T13:33:53Z</time>
      </trkpt>
      <trkpt lat="45.95575" lon="3.75571">
        <ele>779</ele>
        <time>2010-09-19T13:33:53Z</time>
      </trkpt>
      <trkpt lat="45.95623" lon="3.75628">
        <ele>782</ele>
        <time>2010-09-19T13:33:53Z</time>
      </trkpt>
      <trkpt lat="45.95756" lon="3.75856">
        <ele>783</ele>
        <time>2010-09-19T13:33:53Z</time>
      </trkpt>
      <trkpt lat="45.95864" lon="3.75975">
        <ele>783</ele>
        <time>2010-09-19T13:33:53Z</time>
      </trkpt>
      <trkpt lat="45.95905" lon="3.76044">
        <ele>781</ele>
        <time>2010-09-19T13:33:53Z</time>
      </trkpt>
      <trkpt lat="45.95952" lon="3.76097">
        <ele>779</ele>
        <time>2010-09-19T13:33:53Z</time>
      </trkpt>
      <trkpt lat="45.9608" lon="3.76192">
        <ele>770</ele>
        <time>2010-09-19T13:33:53Z</time>
      </trkpt>
      <trkpt lat="45.96264" lon="3.76201">
        <ele>768</ele>
        <time>2010-09-19T13:33:53Z</time>
      </trkpt>
      <trkpt lat="45.96303" lon="3.76304">
        <ele>765</ele>
        <time>2010-09-19T13:33:53Z</time>
      </trkpt>
      <trkpt lat="45.96345" lon="3.7637">
        <ele>764</ele>
        <time>2010-09-19T13:33:53Z</time>
      </trkpt>
      <trkpt lat="45.96388" lon="3.76413">
        <ele>763</ele>
        <time>2010-09-19T13:33:53Z</time>
      </trkpt>
      <trkpt lat="45.96426" lon="3.76481">
        <ele>757</ele>
        <time>2010-09-19T13:33:53Z</time>
      </trkpt>
      <trkpt lat="45.96518" lon="3.76698">
        <ele>733</ele>
        <time>2010-09-19T13:33:53Z</time>
      </trkpt>
      <trkpt lat="45.96637" lon="3.76716">
        <ele>728</ele>
        <time>2010-09-19T13:33:53Z</time>
      </trkpt>
      <trkpt lat="45.96813" lon="3.7698">
        <ele>724</ele>
        <time>2010-09-19T13:33:53Z</time>
      </trkpt>
      <trkpt lat="45.96895" lon="3.7722">
        <ele>707</ele>
        <time>2010-09-19T13:33:53Z</time>
      </trkpt>
      <trkpt lat="45.96901" lon="3.77262">
        <ele>707</ele>
        <time>2010-09-19T13:33:53Z</time>
      </trkpt>
      <trkpt lat="45.96881" lon="3.77284">
        <ele>708</ele>
        <time>2010-09-19T13:33:53Z</time>
      </trkpt>
      <trkpt lat="45.96875" lon="3.77322">
        <ele>709</ele>
        <time>2010-09-19T13:33:53Z</time>
      </trkpt>
      <trkpt lat="45.96887" lon="3.77337">
        <ele>710</ele>
        <time>2010-09-19T13:33:53Z</time>
      </trkpt>
      <trkpt lat="45.96915" lon="3.77325">
        <ele>709</ele>
        <time>2010-09-19T13:33:53Z</time>
      </trkpt>
      <trkpt lat="45.9697" lon="3.7728">
        <ele>706</ele>
        <time>2010-09-19T13:33:53Z</time>
      </trkpt>
      <trkpt lat="45.97017" lon="3.77253">
        <ele>707</ele>
        <time>2010-09-19T13:33:53Z</time>
      </trkpt>
      <trkpt lat="45.97042" lon="3.77269">
        <ele>713</ele>
        <time>2010-09-19T13:33:53Z</time>
      </trkpt>
      <trkpt lat="45.9707" lon="3.77335">
        <ele>727</ele>
        <time>2010-09-19T13:33:53Z</time>
      </trkpt>
      <trkpt lat="45.97072" lon="3.77365">
        <ele>731</ele>
        <time>2010-09-19T13:33:53Z</time>
      </trkpt>
      <trkpt lat="45.97045" lon="3.7748">
        <ele>743</ele>
        <time>2010-09-19T13:33:53Z</time>
      </trkpt>
      <trkpt lat="45.97288" lon="3.77796">
        <ele>753</ele>
        <time>2010-09-19T13:33:53Z</time>
      </trkpt>
      <trkpt lat="45.97335" lon="3.77818">
        <ele>753</ele>
        <time>2010-09-19T13:33:53Z</time>
      </trkpt>
      <trkpt lat="45.97348" lon="3.77804">
        <ele>751</ele>
        <time>2010-09-19T13:33:53Z</time>
      </trkpt>
      <trkpt lat="45.97345" lon="3.77777">
        <ele>748</ele>
        <time>2010-09-19T13:33:53Z</time>
      </trkpt>
      <trkpt lat="45.97356" lon="3.7774">
        <ele>748</ele>
        <time>2010-09-19T13:33:53Z</time>
      </trkpt>
      <trkpt lat="45.9738" lon="3.77708">
        <ele>753</ele>
        <time>2010-09-19T13:33:53Z</time>
      </trkpt>
      <trkpt lat="45.97469" lon="3.77657">
        <ele>763</ele>
        <time>2010-09-19T13:33:53Z</time>
      </trkpt>
      <trkpt lat="45.97466" lon="3.77604">
        <ele>764</ele>
        <time>2010-09-19T13:33:53Z</time>
      </trkpt>
      <trkpt lat="45.97445" lon="3.77544">
        <ele>766</ele>
        <time>2010-09-19T13:33:53Z</time>
      </trkpt>
      <trkpt lat="45.97458" lon="3.77517">
        <ele>769</ele>
        <time>2010-09-19T13:33:53Z</time>
      </trkpt>
      <trkpt lat="45.97491" lon="3.7749">
        <ele>772</ele>
        <time>2010-09-19T13:33:53Z</time>
      </trkpt>
      <trkpt lat="45.97538" lon="3.77485">
        <ele>776</ele>
        <time>2010-09-19T13:33:53Z</time>
      </trkpt>
      <trkpt lat="45.97627" lon="3.77452">
        <ele>778</ele>
        <time>2010-09-19T13:33:53Z</time>
      </trkpt>
      <trkpt lat="45.97684" lon="3.77397">
        <ele>772</ele>
        <time>2010-09-19T13:33:53Z</time>
      </trkpt>
      <trkpt lat="45.97738" lon="3.77408">
        <ele>770</ele>
        <time>2010-09-19T13:33:53Z</time>
      </trkpt>
      <trkpt lat="45.9779" lon="3.77448">
        <ele>773</ele>
        <time>2010-09-19T13:33:53Z</time>
      </trkpt>
      <trkpt lat="45.97949" lon="3.77442">
        <ele>763</ele>
        <time>2010-09-19T13:33:53Z</time>
      </trkpt>
      <trkpt lat="45.97981" lon="3.77476">
        <ele>765</ele>
        <time>2010-09-19T13:33:53Z</time>
      </trkpt>
      <trkpt lat="45.98019" lon="3.77488">
        <ele>765</ele>
        <time>2010-09-19T13:33:53Z</time>
      </trkpt>
      <trkpt lat="45.98039" lon="3.77475">
        <ele>768</ele>
        <time>2010-09-19T13:33:53Z</time>
      </trkpt>
      <trkpt lat="45.98082" lon="3.77331">
        <ele>778</ele>
        <time>2010-09-19T13:33:53Z</time>
      </trkpt>
      <trkpt lat="45.981" lon="3.77351">
        <ele>780</ele>
        <time>2010-09-19T13:33:53Z</time>
      </trkpt>
      <trkpt lat="45.98365" lon="3.77381">
        <ele>752</ele>
        <time>2010-09-19T13:33:53Z</time>
      </trkpt>
      <trkpt lat="45.98409" lon="3.77383">
        <ele>743</ele>
        <time>2010-09-19T13:33:53Z</time>
      </trkpt>
      <trkpt lat="45.98521" lon="3.77456">
        <ele>731</ele>
        <time>2010-09-19T13:33:53Z</time>
      </trkpt>
      <trkpt lat="45.98514" lon="3.77291">
        <ele>713</ele>
        <time>2010-09-19T13:33:53Z</time>
      </trkpt>
      <trkpt lat="45.98455" lon="3.77175">
        <ele>703</ele>
        <time>2010-09-19T13:33:53Z</time>
      </trkpt>
      <trkpt lat="45.9843" lon="3.77055">
        <ele>699</ele>
        <time>2010-09-19T13:33:53Z</time>
      </trkpt>
      <trkpt lat="45.98406" lon="3.76996">
        <ele>700</ele>
        <time>2010-09-19T13:33:53Z</time>
      </trkpt>
      <trkpt lat="45.9837" lon="3.76947">
        <ele>698</ele>
        <time>2010-09-19T13:33:53Z</time>
      </trkpt>
      <trkpt lat="45.98364" lon="3.76895">
        <ele>698</ele>
        <time>2010-09-19T13:33:53Z</time>
      </trkpt>
      <trkpt lat="45.9841" lon="3.76751">
        <ele>695</ele>
        <time>2010-09-19T13:33:53Z</time>
      </trkpt>
      <trkpt lat="45.98439" lon="3.76708">
        <ele>693</ele>
        <time>2010-09-19T13:33:53Z</time>
      </trkpt>
      <trkpt lat="45.98506" lon="3.76668">
        <ele>697</ele>
        <time>2010-09-19T13:33:53Z</time>
      </trkpt>
      <trkpt lat="45.98533" lon="3.76635">
        <ele>697</ele>
        <time>2010-09-19T13:33:53Z</time>
      </trkpt>
      <trkpt lat="45.9854" lon="3.76533">
        <ele>688</ele>
        <time>2010-09-19T13:33:53Z</time>
      </trkpt>
      <trkpt lat="45.98573" lon="3.76274">
        <ele>670</ele>
        <time>2010-09-19T13:33:53Z</time>
      </trkpt>
      <trkpt lat="45.98563" lon="3.76213">
        <ele>665</ele>
        <time>2010-09-19T13:33:53Z</time>
      </trkpt>
      <trkpt lat="45.98495" lon="3.76066">
        <ele>660</ele>
        <time>2010-09-19T13:33:53Z</time>
      </trkpt>
      <trkpt lat="45.98472" lon="3.75944">
        <ele>654</ele>
        <time>2010-09-19T13:33:53Z</time>
      </trkpt>
      <trkpt lat="45.9847" lon="3.75891">
        <ele>650</ele>
        <time>2010-09-19T13:33:53Z</time>
      </trkpt>
      <trkpt lat="45.98498" lon="3.75777">
        <ele>637</ele>
        <time>2010-09-19T13:33:53Z</time>
      </trkpt>
      <trkpt lat="45.98751" lon="3.75911">
        <ele>623</ele>
        <time>2010-09-19T13:33:53Z</time>
      </trkpt>
      <trkpt lat="45.98811" lon="3.75842">
        <ele>613</ele>
        <time>2010-09-19T13:33:53Z</time>
      </trkpt>
      <trkpt lat="45.98816" lon="3.7579">
        <ele>612</ele>
        <time>2010-09-19T13:33:53Z</time>
      </trkpt>
      <trkpt lat="45.98802" lon="3.7574">
        <ele>609</ele>
        <time>2010-09-19T13:33:53Z</time>
      </trkpt>
      <trkpt lat="45.98744" lon="3.75711">
        <ele>607</ele>
        <time>2010-09-19T13:33:53Z</time>
      </trkpt>
      <trkpt lat="45.98683" lon="3.75722">
        <ele>608</ele>
        <time>2010-09-19T13:33:53Z</time>
      </trkpt>
      <trkpt lat="45.98657" lon="3.75699">
        <ele>603</ele>
        <time>2010-09-19T13:33:53Z</time>
      </trkpt>
      <trkpt lat="45.98656" lon="3.7568">
        <ele>601</ele>
        <time>2010-09-19T13:33:53Z</time>
      </trkpt>
      <trkpt lat="45.98684" lon="3.756">
        <ele>601</ele>
        <time>2010-09-19T13:33:53Z</time>
      </trkpt>
      <trkpt lat="45.98685" lon="3.75561">
        <ele>606</ele>
        <time>2010-09-19T13:33:53Z</time>
      </trkpt>
      <trkpt lat="45.98643" lon="3.75306">
        <ele>647</ele>
        <time>2010-09-19T13:33:53Z</time>
      </trkpt>
      <trkpt lat="45.98635" lon="3.75203">
        <ele>657</ele>
        <time>2010-09-19T13:33:53Z</time>
      </trkpt>
      <trkpt lat="45.98641" lon="3.75139">
        <ele>666</ele>
        <time>2010-09-19T13:33:53Z</time>
      </trkpt>
      <trkpt lat="45.98656" lon="3.75083">
        <ele>673</ele>
        <time>2010-09-19T13:33:53Z</time>
      </trkpt>
      <trkpt lat="45.98695" lon="3.75008">
        <ele>687</ele>
        <time>2010-09-19T13:33:53Z</time>
      </trkpt>
      <trkpt lat="45.98706" lon="3.74968">
        <ele>693</ele>
        <time>2010-09-19T13:33:53Z</time>
      </trkpt>
      <trkpt lat="45.98699" lon="3.74869">
        <ele>704</ele>
        <time>2010-09-19T13:33:53Z</time>
      </trkpt>
      <trkpt lat="45.98709" lon="3.74818">
        <ele>711</ele>
        <time>2010-09-19T13:33:53Z</time>
      </trkpt>
      <trkpt lat="45.9871" lon="3.74781">
        <ele>713</ele>
        <time>2010-09-19T13:33:53Z</time>
      </trkpt>
      <trkpt lat="45.98697" lon="3.74714">
        <ele>712</ele>
        <time>2010-09-19T13:33:53Z</time>
      </trkpt>
      <trkpt lat="45.98618" lon="3.74589">
        <ele>702</ele>
        <time>2010-09-19T13:33:53Z</time>
      </trkpt>
      <trkpt lat="45.98616" lon="3.74539">
        <ele>701</ele>
        <time>2010-09-19T13:33:53Z</time>
      </trkpt>
      <trkpt lat="45.98642" lon="3.74422">
        <ele>695</ele>
        <time>2010-09-19T13:33:53Z</time>
      </trkpt>
      <trkpt lat="45.98634" lon="3.74303">
        <ele>691</ele>
        <time>2010-09-19T13:33:53Z</time>
      </trkpt>
      <trkpt lat="45.9864" lon="3.74175">
        <ele>703</ele>
        <time>2010-09-19T13:33:53Z</time>
      </trkpt>
      <trkpt lat="45.98674" lon="3.74158">
        <ele>699</ele>
        <time>2010-09-19T13:33:53Z</time>
      </trkpt>
      <trkpt lat="45.98685" lon="3.74128">
        <ele>699</ele>
        <time>2010-09-19T13:33:53Z</time>
      </trkpt>
      <trkpt lat="45.98682" lon="3.74015">
        <ele>700</ele>
        <time>2010-09-19T13:33:53Z</time>
      </trkpt>
      <trkpt lat="45.98694" lon="3.73986">
        <ele>701</ele>
        <time>2010-09-19T13:33:53Z</time>
      </trkpt>
      <trkpt lat="45.98762" lon="3.74001">
        <ele>697</ele>
        <time>2010-09-19T13:33:53Z</time>
      </trkpt>
      <trkpt lat="45.98797" lon="3.73991">
        <ele>698</ele>
        <time>2010-09-19T13:33:53Z</time>
      </trkpt>
      <trkpt lat="45.98841" lon="3.7394">
        <ele>703</ele>
        <time>2010-09-19T13:33:53Z</time>
      </trkpt>
      <trkpt lat="45.9885" lon="3.73889">
        <ele>714</ele>
        <time>2010-09-19T13:33:53Z</time>
      </trkpt>
      <trkpt lat="45.98899" lon="3.73816">
        <ele>725</ele>
        <time>2010-09-19T13:33:53Z</time>
      </trkpt>
      <trkpt lat="45.98909" lon="3.73756">
        <ele>735</ele>
        <time>2010-09-19T13:33:53Z</time>
      </trkpt>
      <trkpt lat="45.98948" lon="3.73681">
        <ele>744</ele>
        <time>2010-09-19T13:33:53Z</time>
      </trkpt>
      <trkpt lat="45.98983" lon="3.73581">
        <ele>751</ele>
        <time>2010-09-19T13:33:53Z</time>
      </trkpt>
      <trkpt lat="45.9899" lon="3.73448">
        <ele>760</ele>
        <time>2010-09-19T13:33:53Z</time>
      </trkpt>
      <trkpt lat="45.99067" lon="3.732">
        <ele>769</ele>
        <time>2010-09-19T13:33:53Z</time>
      </trkpt>
      <trkpt lat="45.99094" lon="3.73038">
        <ele>774</ele>
        <time>2010-09-19T13:33:53Z</time>
      </trkpt>
      <trkpt lat="45.99099" lon="3.72957">
        <ele>771</ele>
        <time>2010-09-19T13:33:53Z</time>
      </trkpt>
      <trkpt lat="45.99087" lon="3.72831">
        <ele>776</ele>
        <time>2010-09-19T13:33:53Z</time>
      </trkpt>
      <trkpt lat="45.99106" lon="3.72809">
        <ele>779</ele>
        <time>2010-09-19T13:33:53Z</time>
      </trkpt>
      <trkpt lat="45.99147" lon="3.72804">
        <ele>784</ele>
        <time>2010-09-19T13:33:53Z</time>
      </trkpt>
      <trkpt lat="45.99164" lon="3.72778">
        <ele>792</ele>
        <time>2010-09-19T13:33:53Z</time>
      </trkpt>
      <trkpt lat="45.99233" lon="3.72564">
        <ele>828</ele>
        <time>2010-09-19T13:33:53Z</time>
      </trkpt>
      <trkpt lat="45.99243" lon="3.72411">
        <ele>848</ele>
        <time>2010-09-19T13:33:53Z</time>
      </trkpt>
      <trkpt lat="45.99276" lon="3.72212">
        <ele>848</ele>
        <time>2010-09-19T13:33:53Z</time>
      </trkpt>
      <trkpt lat="45.99294" lon="3.72133">
        <ele>847</ele>
        <time>2010-09-19T13:33:53Z</time>
      </trkpt>
      <trkpt lat="45.9933" lon="3.72052">
        <ele>846</ele>
        <time>2010-09-19T13:33:53Z</time>
      </trkpt>
      <trkpt lat="45.99338" lon="3.71882">
        <ele>855</ele>
        <time>2010-09-19T13:33:53Z</time>
      </trkpt>
      <trkpt lat="45.99362" lon="3.71781">
        <ele>853</ele>
        <time>2010-09-19T13:33:53Z</time>
      </trkpt>
      <trkpt lat="45.99382" lon="3.7169">
        <ele>857</ele>
        <time>2010-09-19T13:33:53Z</time>
      </trkpt>
      <trkpt lat="45.99409" lon="3.71674">
        <ele>861</ele>
        <time>2010-09-19T13:33:53Z</time>
      </trkpt>
      <trkpt lat="45.99523" lon="3.71672">
        <ele>871</ele>
        <time>2010-09-19T13:33:53Z</time>
      </trkpt>
      <trkpt lat="45.99635" lon="3.71609">
        <ele>880</ele>
        <time>2010-09-19T13:33:53Z</time>
      </trkpt>
      <trkpt lat="45.99701" lon="3.71525">
        <ele>889</ele>
        <time>2010-09-19T13:33:53Z</time>
      </trkpt>
      <trkpt lat="45.9972" lon="3.71458">
        <ele>893</ele>
        <time>2010-09-19T13:33:53Z</time>
      </trkpt>
      <trkpt lat="45.99716" lon="3.71398">
        <ele>896</ele>
        <time>2010-09-19T13:33:53Z</time>
      </trkpt>
      <trkpt lat="45.99691" lon="3.7133">
        <ele>903</ele>
        <time>2010-09-19T13:33:53Z</time>
      </trkpt>
      <trkpt lat="45.99691" lon="3.71297">
        <ele>903</ele>
        <time>2010-09-19T13:33:53Z</time>
      </trkpt>
      <trkpt lat="45.997" lon="3.71262">
        <ele>903</ele>
        <time>2010-09-19T13:33:53Z</time>
      </trkpt>
      <trkpt lat="45.99747" lon="3.71205">
        <ele>903</ele>
        <time>2010-09-19T13:33:53Z</time>
      </trkpt>
      <trkpt lat="45.99965" lon="3.70986">
        <ele>934</ele>
        <time>2010-09-19T13:33:53Z</time>
      </trkpt>
      <trkpt lat="46.00029" lon="3.70907">
        <ele>934</ele>
        <time>2010-09-19T13:33:53Z</time>
      </trkpt>
      <trkpt lat="46.00135" lon="3.70845">
        <ele>921</ele>
        <time>2010-09-19T13:33:53Z</time>
      </trkpt>
      <trkpt lat="46.00239" lon="3.70833">
        <ele>909</ele>
        <time>2010-09-19T13:33:53Z</time>
      </trkpt>
      <trkpt lat="46.00273" lon="3.70834">
        <ele>902</ele>
        <time>2010-09-19T13:33:53Z</time>
      </trkpt>
      <trkpt lat="46.00321" lon="3.70753">
        <ele>892</ele>
        <time>2010-09-19T13:33:53Z</time>
      </trkpt>
      <trkpt lat="46.00361" lon="3.7071">
        <ele>888</ele>
        <time>2010-09-19T13:33:53Z</time>
      </trkpt>
      <trkpt lat="46.00583" lon="3.70672">
        <ele>883</ele>
        <time>2010-09-19T13:33:53Z</time>
      </trkpt>
      <trkpt lat="46.00641" lon="3.7064">
        <ele>883</ele>
        <time>2010-09-19T13:33:53Z</time>
      </trkpt>
      <trkpt lat="46.00749" lon="3.70547">
        <ele>883</ele>
        <time>2010-09-19T13:33:53Z</time>
      </trkpt>
      <trkpt lat="46.00928" lon="3.70436">
        <ele>882</ele>
        <time>2010-09-19T13:33:53Z</time>
      </trkpt>
      <trkpt lat="46.00981" lon="3.70429">
        <ele>883</ele>
        <time>2010-09-19T13:33:53Z</time>
      </trkpt>
      <trkpt lat="46.01027" lon="3.70408">
        <ele>884</ele>
        <time>2010-09-19T13:33:53Z</time>
      </trkpt>
      <trkpt lat="46.01066" lon="3.70405">
        <ele>884</ele>
        <time>2010-09-19T13:33:53Z</time>
      </trkpt>
      <trkpt lat="46.0112" lon="3.70421">
        <ele>883</ele>
        <time>2010-09-19T13:33:53Z</time>
      </trkpt>
      <trkpt lat="46.01225" lon="3.70409">
        <ele>880</ele>
        <time>2010-09-19T13:33:53Z</time>
      </trkpt>
      <trkpt lat="46.01318" lon="3.70374">
        <ele>875</ele>
        <time>2010-09-19T13:33:53Z</time>
      </trkpt>
      <trkpt lat="46.01386" lon="3.70333">
        <ele>868</ele>
        <time>2010-09-19T13:33:53Z</time>
      </trkpt>
      <trkpt lat="46.01503" lon="3.70256">
        <ele>850</ele>
        <time>2010-09-19T13:33:53Z</time>
      </trkpt>
      <trkpt lat="46.01643" lon="3.70302">
        <ele>849</ele>
        <time>2010-09-19T13:33:53Z</time>
      </trkpt>
      <trkpt lat="46.0168" lon="3.70275">
        <ele>850</ele>
        <time>2010-09-19T13:33:53Z</time>
      </trkpt>
      <trkpt lat="46.01761" lon="3.70142">
        <ele>852</ele>
        <time>2010-09-19T13:33:53Z</time>
      </trkpt>
      <trkpt lat="46.01857" lon="3.70041">
        <ele>848</ele>
        <time>2010-09-19T13:33:53Z</time>
      </trkpt>
      <trkpt lat="46.01941" lon="3.69998">
        <ele>844</ele>
        <time>2010-09-19T13:33:53Z</time>
      </trkpt>
      <trkpt lat="46.01977" lon="3.69997">
        <ele>842</ele>
        <time>2010-09-19T13:33:53Z</time>
      </trkpt>
      <trkpt lat="46.02047" lon="3.69965">
        <ele>834</ele>
        <time>2010-09-19T13:33:53Z</time>
      </trkpt>
      <trkpt lat="46.02086" lon="3.69904">
        <ele>833</ele>
        <time>2010-09-19T13:33:53Z</time>
      </trkpt>
      <trkpt lat="46.02091" lon="3.69874">
        <ele>832</ele>
        <time>2010-09-19T13:33:53Z</time>
      </trkpt>
      <trkpt lat="46.02083" lon="3.69774">
        <ele>823</ele>
        <time>2010-09-19T13:33:53Z</time>
      </trkpt>
      <trkpt lat="46.02109" lon="3.69519">
        <ele>809</ele>
        <time>2010-09-19T13:33:53Z</time>
      </trkpt>
      <trkpt lat="46.02105" lon="3.69353">
        <ele>795</ele>
        <time>2010-09-19T13:33:53Z</time>
      </trkpt>
      <trkpt lat="46.02114" lon="3.69279">
        <ele>785</ele>
        <time>2010-09-19T13:33:53Z</time>
      </trkpt>
      <trkpt lat="46.0212" lon="3.6924">
        <ele>779</ele>
        <time>2010-09-19T13:33:53Z</time>
      </trkpt>
      <trkpt lat="46.02108" lon="3.69183">
        <ele>771</ele>
        <time>2010-09-19T13:33:53Z</time>
      </trkpt>
      <trkpt lat="46.02073" lon="3.69045">
        <ele>769</ele>
        <time>2010-09-19T13:33:53Z</time>
      </trkpt>
      <trkpt lat="46.02035" lon="3.68925">
        <ele>768</ele>
        <time>2010-09-19T13:33:53Z</time>
      </trkpt>
      <trkpt lat="46.01925" lon="3.68744">
        <ele>763</ele>
        <time>2010-09-19T13:33:53Z</time>
      </trkpt>
      <trkpt lat="46.01876" lon="3.68729">
        <ele>762</ele>
        <time>2010-09-19T13:33:53Z</time>
      </trkpt>
      <trkpt lat="46.018" lon="3.68727">
        <ele>763</ele>
        <time>2010-09-19T13:33:53Z</time>
      </trkpt>
      <trkpt lat="46.01721" lon="3.68657">
        <ele>763</ele>
        <time>2010-09-19T13:33:53Z</time>
      </trkpt>
      <trkpt lat="46.0164" lon="3.68553">
        <ele>757</ele>
        <time>2010-09-19T13:33:53Z</time>
      </trkpt>
      <trkpt lat="46.01643" lon="3.68337">
        <ele>739</ele>
        <time>2010-09-19T13:33:53Z</time>
      </trkpt>
      <trkpt lat="46.01606" lon="3.68264">
        <ele>728</ele>
        <time>2010-09-19T13:33:53Z</time>
      </trkpt>
      <trkpt lat="46.01612" lon="3.68201">
        <ele>726</ele>
        <time>2010-09-19T13:33:53Z</time>
      </trkpt>
      <trkpt lat="46.01605" lon="3.6811">
        <ele>722</ele>
        <time>2010-09-19T13:33:53Z</time>
      </trkpt>
      <trkpt lat="46.01593" lon="3.68063">
        <ele>718</ele>
        <time>2010-09-19T13:33:53Z</time>
      </trkpt>
      <trkpt lat="46.0159" lon="3.67953">
        <ele>710</ele>
        <time>2010-09-19T13:33:53Z</time>
      </trkpt>
      <trkpt lat="46.01602" lon="3.67861">
        <ele>705</ele>
        <time>2010-09-19T13:33:53Z</time>
      </trkpt>
      <trkpt lat="46.01639" lon="3.67774">
        <ele>699</ele>
        <time>2010-09-19T13:33:53Z</time>
      </trkpt>
      <trkpt lat="46.01677" lon="3.67718">
        <ele>695</ele>
        <time>2010-09-19T13:33:53Z</time>
      </trkpt>
      <trkpt lat="46.01568" lon="3.67438">
        <ele>652</ele>
        <time>2010-09-19T13:33:53Z</time>
      </trkpt>
      <trkpt lat="46.01539" lon="3.67335">
        <ele>633</ele>
        <time>2010-09-19T13:33:53Z</time>
      </trkpt>
    </trkseg>
  </trk>
</gpx>